Back to catalog

TIANGONG

WENTIAN

AliveScienceVLEO
NORAD 53239·PAYLOAD·🇨🇳 China

Launched Jul 24, 2022 from Wenchang Space Launch Site

Loading…

Next Passes (next 24 hours)

TLE

FreshSource: Space-Track

Epoch: Sep 14, 2026, 14:01 UTC

1 53239U 22085A   26257.58463244  .00018605  00000-0  22780-3 0  9999
2 53239  41.4676 139.2408 0002663 278.8217  81.2320 15.59928303288235

Track TIANGONG in real time with AllMySat

Download on the App Store